STARLINK-37628, 69823

Orbit data source: Space-Track

STARLINK-37628, 69823 is a payload satellite owned by SpaceX/Seattle (US) in LEO that was launched on Sun, 05 Jul 2026 UTC via an FALCON 9 launch vehicle from the Air Force Eastern Test Range (AFETR). Payload-class satellites include a variety of spacecraft equipped with specific instruments for various scientific and technological missions. These include communications satellites like Starlink; space stations such as the ISS; scientific satellites like the Hubble; Earth observation satellites from companies like Planet Labs, Umbra, and HawkEye 360; GPS; miniature CubeSats for education and research; and military/defense satellites.

Loading next visibility...
Identifier
69823, 2026-154E
Orbit
LEO
Country
Flag of USUS
Related business
Manufacturer
SpaceX/Seattle
Mission
Operational spacecraft
Bus & Motor
STARLINK V2MO, Unknown motor
Mass
575 kg wet, ~530 kg dry
Launch date (UTC)
2026-07-05 (2 months ago)
Launch vehicle
FALCON 9
Launch site
Air Force Eastern Test Range (AFETR)
Object type
Payload
Rocket body
Debris
Shape & HBR
BOX + PAN, 17.7 m
Radar Cross Section
Large (>1 m²)

Expand to show TLE details & history
Last TLE update: 5 hours ago

TLE from 5 hours ago
0 STARLINK-37628
1 69823U 26154E   26236.58336806  .00051771  00000-0  15329-2 0  9997
2 69823  53.1593  97.8912 0001584  87.9605 173.8774 15.34398777  5810
Epoch: 2026-08-24T14:00Z
TLE epoch observation values (Epoch: 2026-08-24T14:00:03.000Z)
Latitude
-52.54868°
Longitude
171.59667°
Altitude
482.033 km
Speed
7.624 km/s
True Right ascension
23h 37m 53s
True Declination
-52° 22' 33"
Sunlit
Object was in full shadow at epoch
Visualization orbit readout
Latitude
Unknown
Longitude
Unknown
Altitude
Unknown
Speed
Unknown
Apparent Right ascension
Unknown
Apparent Declination
Unknown
Sunlit
N/A
Visualization observer readout
Local Sidereal Time
10:27:31
Azimuth
Unknown
Elevation
Unknown
Doppler factor
Unknown
Orbital elements
Apogee altitude
464.048 km
Perigee altitude
461.88 km
Semi-major axis
6,841.101 km
Eccentricity
0.00016
Inclination
53.1593°
RAAN
97.8912°
Arg. of periapsis
87.9605°
True anomaly
173.87934°
Mean anomaly
173.8774°
Eccentric anomaly
173.87837°
Mean motion
3.83578 °/min
Orbital period
93.85 mins
BSTAR
0.0015329
Loading maneuver chart data...
Computing Atmospheric mass density...
Loading historical data...
Loading historical data...
Loading historical data...
Loading historical data...
Loading historical data...
Loading historical data...
Loading historical data...

Documentation

Showing up to 5 results
|